EHI
0 0 0 0 0 0 0 0 0 0 0 0 0 0 0 0 0 0 0 0 0 0 0 0 0 0 0 0 0 0 0 0 0 0 0 0 0 0
0 0 0 0 0 0 0 0 0 0 0 0 0 0 0 0 0 0 0 0 0 0 0 0 0 0 0 0 0 0 0 0 0 0 0 0 0 0
0 0 0 0 0 0 0 0 0 0 0 0 0 0 0 0 0 0 0 0 0 0 0 0 0 0 0 0 0 0 0 0 0 0 0 0 0 0
0 0 0 0 0 0 0 0 0 0 0 0 0 0 0 0 0 0 0 0 0 0 0 0 0 0 0 0 0 0 0 0 0 0 0 0 0 0
0 0 0 0 0 0 0 0 0 0 0 0 0 0 0 0 0 0 0 0 0 0 0 0 0 0 0 0 0 0 0 0 0 0 0 0 0 0
0 0 0 0 0 0 0 0 0 0 0 0 0 0 0 0 0 0 0 0 0 0 0 0 0 0 0 0 0 0 0 0 0 0 0 0 0 0
0 0 0 0 0 0 0 0 0 0 0 0 0 0 0 0 0 0 0 0 0 0 0 0 0 0 0 0 0 0 0 0 0 0 0 0 0 0
0 0 0 0 0 0 0 0 0 0 0 0 0 0 0 0 0 0 0 0 0 0 0 0 0 0 0 0 0 0 0 0 0 0 0 0 0 0
0 0 0 0 0 0 0 0 0 0 0 0 0 0 0 0 0 0 0 0 0 0 0 0 0 0 0 0 0 0 0 0 0 0 0 0 0 0
0 0 0 0 0 0 0 0 0 0 0 0 0 0 0 0 0 0 0 0 0 0 0 0 0 0 0 0 0 0 0 0 0 0 0 0 0 0
0 0 0 0 0 0 0 0 0 0 0 0 0 0 0 0 0 0 0 0 0 0 0 0 0 0 0 0 0 0 0 0 0 0 0 0 0 0
0 0 0 0 0 0 0 0 0 0 0 0 0 0 0 0 0 0 0 0 0 0 0 0 0 0 0 0 0 0 0 0 0 0 0 0 0 0
0 0 0 0 0 0 0 0 0 0 0 0 0 0 0 0 0 0 0 0 0 0 0 0 0 0 0 0 0 0 0 0 0 0 0 0 0 0
0 0 0 0 0 0 0 0 0 0 0 0 0 0 0 0 0 0 0 0 0 0 0 0 0 0 0 0 0 0 0 0 0 0 0 0 0 0
0 0 0 0 0 0 0 0 0 0 0 0 0 0 0 0 0 0 0 0 0 0 0 0 0 0 0 0 0 0 0 0 0 0 0 0 0 0
0 0 0 0 0 0 0 0 0 0 0 0 0 0 0 0 0 0 0 0 0 0 0 0 0 0 0 0 0 0 0 0 0 0 0 0 0 0
0 0 0 0 0 0 0 0 0 0 0 0 0 0 0 0 0 0 0 0 0 0 0 0 0 0 0 0 0 0 0 0 0 0 0 0 0 0
0 0 0 0 0 0 0 0 0 0 0 0 0 0 0 0 0 0 0 0 0 0 0 0 0 0 0 0 0 0 0 0 0 0 0 0 0 0
0 0 0 0 0 0 0 0 0 0 0 0 0 0 0 0 0 0 0 0 0 0 0 0 0 0 0 0 0 0 0 0 0 0 0 0 0 0
0 0 0 0 0 0 0 0 0 0 0 0 0 0 0 0 0 0 0 0 0 0 0 0 0 0 0 0 0 0 0 0 0 0 0 0 0 0
0 0 0 0 0 0 0 0 0 0 0 0 0 0 0 0 0 0 0 0 0 0 0 0 0 0 0 0 0 0 0 0 0 0 0 0 0 0
0 0 0 0 0 0 0 0 0 0 0 0 0 0 0 0 0 0 0 0 0 0 0 0 0 0 0 0 0 0 0 0 0 0 0 0 0 0
0 0 0 0 0 0 0 0 0 0 0 0 0 0 0 0 0 0 0 0 0 0 0 0 0 0 0 0 0 0 0 0 0 0 0 0 0 0
Wind_Speed
6 7 6 5 5 5 4 5 6 5 4 4 2 2 2 3 6 6 5 10 10 9 9 9 9 8 7 6 6 4 3 3 3 3 2 1 2 2
4 6 6 4 5 5 5 4 4 4 4 3 3 3 3 4 7 6 5 9 9 9 8 8 8 7 7 7 6 5 4 3 3 2 2 1 1 1
3 4 6 6 5 5 5 4 4 4 4 2 2 2 3 4 5 5 5 5 5 8 8 8 8 8 7 7 6 5 5 4 3 3 2 1 1 1
2 3 4 4 6 5 5 5 5 4 4 4 3 2 3 4 6 5 4 5 4 7 8 8 8 8 8 8 7 6 5 5 4 3 3 2 2 3
1 2 2 4 5 4 5 5 4 4 3 4 4 2 2 3 5 5 6 5 5 7 9 10 10 10 9 8 7 7 6 5 5 5 5 5 6 5
3 2 1 3 4 5 5 5 5 5 5 5 4 3 3 4 5 6 6 4 5 6 8 9 11 12 11 10 9 8 7 7 7 7 7 7 7 8
4 3 2 3 4 4 4 5 6 5 5 5 4 4 4 5 5 4 7 7 5 5 6 6 6 5 6 8 9 9 9 9 8 8 8 8 9 9
3 3 3 3 4 4 6 7 8 7 6 5 4 5 5 5 5 7 8 7 4 4 5 5 4 5 4 4 7 10 10 10 9 9 9 9 9 9
3 3 3 3 4 3 4 6 5 7 8 6 6 5 6 6 8 8 7 5 5 6 5 5 3 4 4 5 9 9 10 10 10 10 9 9 9 9
3 3 2 2 2 3 4 5 4 3 4 4 5 6 6 7 8 7 8 7 7 5 4 4 2 3 3 4 7 8 8 9 9 9 9 9 8 8
3 3 2 2 2 5 5 6 6 4 4 6 7 7 10 12 11 9 9 9 7 3 2 4 4 3 2 2 4 7 7 7 7 7 8 8 8 7
3 3 4 3 3 5 5 6 7 4 4 6 7 7 7 10 12 10 10 9 6 4 3 4 4 4 3 1 1 2 3 4 5 5 5 5 6 4
2 2 2 4 5 6 5 4 6 6 5 7 6 6 6 5 4 4 5 7 6 4 5 5 4 3 4 3 1 0 1 1 1 2 3 4 5 4
2 2 2 4 5 6 5 7 10 8 5 6 6 5 5 4 4 5 6 5 4 4 7 6 5 5 5 3 2 2 1 1 1 1 1 2 4 4
2 3 4 6 6 6 8 10 8 5 5 6 6 4 3 4 5 5 6 7 7 6 4 2 5 5 4 4 4 3 2 1 2 2 1 1 1 1
3 5 7 8 7 7 7 6 4 4 5 5 4 3 3 4 4 4 4 4 5 4 6 5 4 6 4 3 4 3 3 3 2 2 2 1 1 1
2 3 3 4 4 4 4 4 4 4 5 4 4 4 4 5 4 3 3 3 4 3 2 4 5 6 5 4 3 3 3 2 2 2 2 1 2 3
4 3 3 3 3 3 3 3 3 4 4 4 4 4 4 4 3 3 3 4 4 3 2 2 2 3 4 4 3 4 3 2 2 2 2 2 3 3
4 3 3 2 2 2 3 3 3 3 3 4 4 4 4 4 4 4 4 3 3 3 2 2 2 3 3 1 1 1 4 3 2 2 2 3 3 4
2 2 2 2 2 2 2 2 3 3 3 4 4 4 4 4 4 4 4 4 3 3 2 1 2 3 4 4 3 2 2 4 3 3 2 2 2 3
1 1 2 2 2 2 3 3 3 3 4 4 4 4 4 4 4 4 4 6 4 3 3 3 2 3 3 3 2 1 2 3 5 4 3 2 1 2
2 2 2 2 2 2 3 3 3 3 4 3 3 4 4 4 5 5 5 5 4 4 4 2 2 2 2 3 3 3 2 2 2 4 6 7 5 4
3 3 2 2 2 2 2 3 4 4 4 4 4 4 4 3 4 4 4 4 4 3 3 3 2 2 2 3 3 3 3 2 1 1 4 8 12 12
Wind_Direction
206 199 199 197 192 184 174 166 162 177 198 190 179 184 173 155 159 169 174 187 187 189 185 184 180 180 176 166 155 147 138 140 154 163 182 234 268 284
204 198 197 193 188 187 186 181 176 167 178 182 181 167 167 161 159 160 168 177 183 183 181 177 171 165 155 146 141 137 136 136 137 142 149 135 45 19
192 196 199 189 185 186 183 176 176 163 160 157 143 138 146 154 152 152 156 163 173 173 172 166 155 148 143 141 136 133 131 125 117 113 113 112 88 44
171 183 192 183 182 183 181 181 176 163 150 152 142 138 144 151 145 143 145 153 147 150 148 142 135 129 127 126 123 120 117 112 107 104 99 96 84 76
91 151 160 154 167 172 172 169 163 154 135 140 138 132 119 130 124 119 117 115 124 123 117 113 112 111 111 110 110 110 109 107 105 99 92 88 80 73
39 56 106 142 160 165 162 157 151 142 135 133 128 125 117 123 127 129 122 108 108 107 99 97 98 95 98 102 103 104 104 103 100 95 90 85 79 76
43 38 61 111 146 154 154 155 151 145 141 135 134 130 135 144 146 139 131 118 99 104 102 89 86 79 77 87 94 99 99 97 95 93 89 84 83 82
52 41 59 73 99 129 150 158 158 156 153 145 142 150 149 146 136 140 137 137 126 126 107 91 82 81 68 74 94 99 99 98 95 94 92 90 90 88
58 51 53 61 66 85 109 129 149 157 156 151 152 159 153 154 146 146 147 136 121 136 115 93 76 75 58 76 96 99 100 99 96 96 98 97 92 88
51 55 70 50 58 97 107 103 102 115 152 151 157 159 155 152 150 143 134 111 102 108 101 105 93 77 56 48 84 92 93 96 98 100 101 99 93 87
38 43 65 68 87 115 116 116 106 89 92 121 132 139 143 143 139 130 132 135 131 121 99 112 124 103 72 36 56 76 85 92 95 102 108 102 94 82
32 29 36 51 88 120 122 126 124 117 109 97 91 97 118 135 142 148 149 146 135 134 143 118 135 133 122 79 37 44 59 72 81 86 103 116 112 94
39 18 9 42 76 98 110 115 126 119 105 103 97 91 93 103 112 119 133 147 142 139 155 131 137 138 129 138 155 161 117 90 61 52 73 104 124 127
42 8 6 46 80 93 104 115 115 106 99 98 96 95 100 100 100 102 99 86 82 127 150 139 136 150 135 136 161 163 162 171 149 143 89 75 85 101
39 46 57 66 73 79 104 113 110 103 102 101 101 93 88 101 102 94 85 80 68 72 94 115 133 134 130 144 154 154 165 196 180 169 172 172 179 124
40 55 63 65 67 76 85 87 89 101 110 112 108 95 85 89 97 103 103 96 80 48 30 45 117 130 125 126 139 151 163 176 181 182 173 205 234 212
58 55 54 59 65 66 69 77 88 100 100 102 107 107 104 101 92 85 95 89 97 105 58 37 58 71 82 118 123 142 152 168 179 164 154 198 251 231
84 74 71 74 84 93 97 91 93 111 116 117 115 116 120 119 108 91 91 105 113 116 116 114 101 73 60 38 72 148 157 173 177 168 158 175 252 252
84 92 100 103 102 109 114 118 121 127 124 126 128 129 126 124 121 121 117 113 115 121 129 128 113 112 122 193 293 137 165 174 163 176 192 191 224 252
83 106 115 120 123 127 130 125 121 124 127 134 137 139 137 135 136 141 144 142 140 137 139 146 160 161 171 186 199 212 183 169 171 189 209 217 250 290
120 122 129 132 133 137 138 137 138 141 145 145 150 153 150 142 147 156 158 158 147 153 173 199 201 148 120 101 104 256 254 217 191 185 180 181 246 296
179 167 162 151 142 141 141 141 139 143 148 150 157 159 159 157 160 163 165 166 173 176 182 172 137 127 135 158 187 211 235 255 258 231 216 193 180 203
193 187 181 171 159 150 149 154 156 161 164 162 161 162 159 160 165 165 169 169 163 163 156 157 154 153 170 177 186 200 214 217 226 270 269 243 233 240